User: anonymous   Login
Location: Woodhurst
(52.3667°N, 0.0667°W)
Time: 02:29:19
(UTC+00:00)
Language:

Cosmos 1470 - Orbit

View from above orbital plane
View from above orbital plane
View from above satellite
View from above satellite

Ground track
Ground track

The orbit data is extracted from the following two-line orbital elements,

1 14147U 83061A   25194.56565340  .00008505  00000-0  24514-3 0  9997
2 14147  82.4723   2.9799 0010055 135.4530 224.7524 15.35508664 50940
Epoch (UTC): 13 July 2025 13:34:32
Eccentricity: 0.0010055
inclination: 82.4723°
perigee height: 452 km
apogee height: 466 km
right ascension of ascending node: 2.9799°
argument of perigee: 135.4530°
revolutions per day: 15.35508664
mean anomaly at epoch: 224.7524°
orbit number at epoch: 5094

The dashed part of the orbit path shows where the satellite is in the earth's shadow,  

DLR